Stations météo

réclame
Mon MeteoGroup
Oviedo, Espagne (8015): Température de l'air & dewpoint: 14.11.2018 12:00:00 - 20.11.2018 12:00:00 (CET)Oviedo, Espagne (8015): Vitesse du vent: 14.11.2018 12:00:00 - 20.11.2018 12:00:00 (CET)Oviedo, Espagne (8015): Direction du vent: 14.11.2018 12:00:00 - 20.11.2018 12:00:00 (CET)Oviedo, Espagne (8015): reduced air pressure: 14.11.2018 12:00:00 - 20.11.2018 12:00:00 (CET)Oviedo, Espagne (8015): visibility: 14.11.2018 12:00:00 - 20.11.2018 12:00:00 (CET)Oviedo, Espagne (8015): Quantités de précipitations: 14.11.2018 12:00:00 - 20.11.2018 12:00:00 (CET)
Date & Time tt [°C] td [°C] ff [km/h] ff [knt] dd ppp [hPa] vv [km] rr [mm]
20.11.2018 12:00:00 6,6 5,9 11 6 ENE 1002,0 8 0,4
20.11.2018 11:00:00 6,5 6,2 9 5 ENE 1001,6 4,4 0,4
20.11.2018 10:00:00 6,5 6,2 15 8 ENE 1001,2 0,4 -
20.11.2018 09:00:00 7,1 7,1 13 7 ENE 1000,8 3,1 2,0
20.11.2018 08:00:00 7,6 7,6 4 2 NNW 1000,5 0,3 0,4
20.11.2018 07:00:00 7,6 7,5 4 2 E 1000,4 2,0 -
20.11.2018 06:00:00 7,5 7,4 8 4 NE 1000,7 5 0,6
20.11.2018 05:00:00 7,6 7,3 9 5 NE 1000,9 2,9 0,8
20.11.2018 04:00:00 8,0 7,4 9 5 NE 1001,3 1,0 -
20.11.2018 03:00:00 8,6 7,5 8 4 ENE 1001,6 9 0,0
20.11.2018 02:00:00 8,8 7,9 11 6 ENE 1001,9 11 0,0
20.11.2018 01:00:00 9,3 8,4 13 7 NE 1002,3 10 -
20.11.2018 00:00:00 9,7 8,9 11 6 NE 1002,8 11 0,0
19.11.2018 23:00:00 10,0 9,1 11 6 NE 1003,0 13 0,0
19.11.2018 22:00:00 10,1 9,2 13 7 NE 1003,5 6 -
19.11.2018 21:00:00 10,4 9,6 13 7 NE 1003,5 9 0,0
19.11.2018 20:00:00 10,6 10,0 8 4 N 1003,7 9 0,2
19.11.2018 19:00:00 11,0 10,2 9 5 NE 1003,4 6 -
19.11.2018 18:00:00 11,5 9,2 8 4 N 1003,2 19 0,0
19.11.2018 17:00:00 12,3 9,8 9 5 NNE 1003,0 17 0,0
19.11.2018 16:00:00 13,2 9,8 9 5 NNE 1002,8 19 -
19.11.2018 15:00:00 14,0 9,8 4 2 N 1002,5 19 0,0
19.11.2018 14:00:00 14,2 9,6 5 3 NE 1002,9 20 0,0
19.11.2018 13:00:00 12,7 8,8 4 2 N 1003,6 20 -
19.11.2018 12:00:00 11,6 9,0 2 1 WNW 1004,3 20 0,0
19.11.2018 11:00:00 10,4 8,2 4 2 W 1004,9 20 0,0
19.11.2018 10:00:00 8,1 8,0 2 1 SW 1005,0 7 -
19.11.2018 09:00:00 8,0 7,9 5 3 WSW 1005,0 0,9 0,0
19.11.2018 08:00:00 8,0 7,7 5 3 W 1004,7 1,1 0,0
19.11.2018 07:00:00 8,5 7,7 5 3 ESE 1004,2 16 -
19.11.2018 06:00:00 8,9 8,0 5 3 E 1003,8 20 0,0
19.11.2018 05:00:00 9,4 8,6 4 2 N 1003,2 12 0,0
19.11.2018 04:00:00 10,0 8,6 8 4 SE 1003,0 20 -
19.11.2018 03:00:00 10,3 8,7 9 5 SE 1003,1 20 0,0
19.11.2018 02:00:00 10,5 9,4 9 5 ESE 1003,2 19 0,0
19.11.2018 01:00:00 10,5 9,9 9 5 E 1003,5 14 -
19.11.2018 00:00:00 10,7 10,5 9 5 ESE 1003,8 - 0,4
18.11.2018 23:00:00 11,0 11,0 11 6 E 1003,9 2,4 0,0
18.11.2018 22:00:00 11,0 11,0 4 2 SE 1004,2 0,2 -
18.11.2018 21:00:00 10,9 10,9 8 4 W 1004,0 0,1 0,4
18.11.2018 20:00:00 11,1 10,8 2 1 WNW 1003,8 1,6 0,0
18.11.2018 19:00:00 11,8 10,9 4 2 SE 1003,8 7 -
18.11.2018 18:00:00 11,9 10,5 8 4 ENE 1003,7 15 0,0
18.11.2018 17:00:00 12,0 10,6 5 3 NE 1004,0 12 0,0
18.11.2018 16:00:00 12,2 10,9 11 6 ENE 1004,2 10 -
18.11.2018 15:00:00 13,1 11,2 9 5 NE 1004,4 11 0,0
18.11.2018 14:00:00 13,4 11,1 5 3 E 1004,8 10 0,0
18.11.2018 13:00:00 11,7 9,8 4 2 WNW 1005,8 12 -
18.11.2018 12:00:00 12,3 9,7 2 1 WSW 1006,4 16 0,0
18.11.2018 11:00:00 10,4 8,7 4 2 S 1007,3 14 0,0
18.11.2018 10:00:00 9,0 7,3 4 2 NNW 1007,8 15 -
18.11.2018 09:00:00 8,1 7,2 4 2 SSW 1007,7 14 0,0
18.11.2018 08:00:00 7,7 6,5 2 1 S 1007,6 16 0,0
18.11.2018 07:00:00 7,9 6,7 2 1 SE 1007,5 14 -
18.11.2018 06:00:00 8,4 6,7 4 2 W 1007,4 16 0,0
18.11.2018 05:00:00 8,5 6,8 8 4 S 1007,4 16 0,0
18.11.2018 04:00:00 9,3 7,1 5 3 S 1008,1 15 -
18.11.2018 03:00:00 9,6 7,2 8 4 S 1008,5 17 0,0
18.11.2018 02:00:00 10,6 7,5 8 4 S 1008,7 18 0,0
18.11.2018 01:00:00 11,4 7,5 4 2 SSE 1009,0 17 -
18.11.2018 00:00:00 12,0 7,7 8 4 S 1009,6 19 0,0
17.11.2018 23:00:00 13,3 7,5 4 2 SE 1009,7 20 0,0
17.11.2018 22:00:00 13,6 7,8 8 4 SSE 1010,1 20 -
17.11.2018 21:00:00 14,5 7,8 5 3 ESE 1010,4 20 0,0
17.11.2018 20:00:00 15,1 7,9 9 5 ESE 1010,4 19 0,0
17.11.2018 19:00:00 16,0 7,5 11 6 SE 1010,6 20 -
17.11.2018 18:00:00 17,0 7,3 2 1 S 1010,5 20 0,0
17.11.2018 17:00:00 18,6 8,0 11 6 SE 1010,5 19 0,0
17.11.2018 16:00:00 19,3 8,0 13 7 SE 1010,6 20 -
17.11.2018 15:00:00 19,9 7,6 15 8 SE 1011,2 20 0,0
17.11.2018 14:00:00 19,6 8,3 16 9 SE 1011,6 20 0,0
17.11.2018 13:00:00 19,9 7,6 18 10 SE 1012,2 20 -
17.11.2018 12:00:00 19,6 8,6 13 7 SE 1012,8 20 0,0
17.11.2018 11:00:00 17,9 9,0 13 7 ESE 1013,4 20 0,0
17.11.2018 10:00:00 14,6 9,0 4 2 SSE 1014,2 20 -
17.11.2018 09:00:00 13,8 8,0 8 4 SE 1014,2 20 0,0
17.11.2018 08:00:00 13,2 7,6 8 4 SE 1013,9 20 0,0
17.11.2018 07:00:00 14,5 7,8 9 5 SE 1013,5 15 -
17.11.2018 06:00:00 14,3 7,8 8 4 SE 1013,7 20 0,0
17.11.2018 05:00:00 13,9 7,9 8 4 SE 1013,9 20 0,0
17.11.2018 04:00:00 14,1 8,3 8 4 SE 1014,3 10 -
17.11.2018 03:00:00 14,2 8,2 9 5 SE 1014,4 20 0,0
17.11.2018 02:00:00 14,3 8,5 11 6 SE 1014,3 20 0,0
17.11.2018 01:00:00 14,2 8,6 5 3 SSE 1014,5 10 -
17.11.2018 00:00:00 13,8 8,2 5 3 SSE 1014,6 20 0,0
16.11.2018 23:00:00 13,6 8,6 4 2 S 1015,1 20 0,0
16.11.2018 22:00:00 15,7 8,4 8 4 ESE 1014,6 10 -
16.11.2018 21:00:00 16,0 8,5 11 6 SE 1014,9 20 0,0
16.11.2018 20:00:00 16,3 8,3 4 2 SSE 1015,0 20 0,0
16.11.2018 19:00:00 16,8 9,0 5 3 SE 1014,7 15 -
16.11.2018 18:00:00 17,6 10,7 5 3 E 1014,5 19 0,0
16.11.2018 17:00:00 18,9 11,2 4 2 SSE 1014,2 19 0,0
16.11.2018 16:00:00 19,6 11,6 8 4 ENE 1014,2 20 -
16.11.2018 15:00:00 19,7 10,9 5 3 ENE 1014,8 20 0,0
16.11.2018 14:00:00 18,8 12,5 2 1 N 1015,6 19 0,0
16.11.2018 13:00:00 18,2 11,7 2 1 NE 1016,5 20 -
16.11.2018 12:00:00 16,5 11,2 2 1 SSW 1017,4 17 0,0
16.11.2018 11:00:00 15,1 10,1 5 3 SSE 1018,0 2,1 0,0
16.11.2018 10:00:00 11,1 8,7 4 2 SSE 1018,7 20 -
16.11.2018 09:00:00 10,0 7,9 9 5 S 1018,6 19 0,0
16.11.2018 08:00:00 9,7 7,6 5 3 SSW 1018,2 18 0,0
16.11.2018 07:00:00 9,8 8,1 8 4 S 1018,0 15 -
16.11.2018 06:00:00 9,8 8,1 9 5 S 1018,3 17 0,0
16.11.2018 05:00:00 10,0 8,4 9 5 S 1018,5 15 0,0
16.11.2018 04:00:00 10,0 8,4 9 5 S 1018,8 15 -
16.11.2018 03:00:00 10,1 8,5 8 4 W 1018,8 14 0,0
16.11.2018 02:00:00 11,2 8,6 4 2 W 1018,1 18 0,0
16.11.2018 01:00:00 10,9 8,6 4 2 SSW 1018,5 15 -
16.11.2018 00:00:00 11,5 9,2 9 5 SSE 1018,5 15 0,0
15.11.2018 23:00:00 11,8 9,9 8 4 SSE 1019,2 13 0,0
15.11.2018 22:00:00 12,3 10,2 8 4 S 1019,3 15 -
15.11.2018 21:00:00 13,3 10,3 4 2 W 1019,4 14 0,0
15.11.2018 20:00:00 14,1 10,1 4 2 W 1018,9 16 0,0
15.11.2018 19:00:00 15,2 10,0 5 3 E 1018,2 10 -
15.11.2018 18:00:00 16,1 10,2 5 3 E 1017,3 19 0,0
15.11.2018 17:00:00 17,5 9,9 9 5 E 1016,5 20 0,0
15.11.2018 16:00:00 18,0 10,4 5 3 ENE 1016,4 15 -
15.11.2018 15:00:00 18,9 10,7 8 4 NE 1016,6 19 0,0
15.11.2018 14:00:00 18,3 9,6 5 3 ENE 1017,0 12 0,0
15.11.2018 13:00:00 17,6 9,7 2 1 NW 1017,3 15 -
15.11.2018 12:00:00 16,5 9,9 5 3 ENE 1017,4 19 0,0
15.11.2018 11:00:00 14,3 9,1 5 3 NNW 1017,7 20 0,0
15.11.2018 10:00:00 13,3 8,6 4 2 WNW 1017,5 20 -
15.11.2018 09:00:00 12,9 8,4 4 2 WNW 1016,7 20 0,0
15.11.2018 08:00:00 13,4 8,2 8 4 WNW 1015,7 20 0,0
15.11.2018 07:00:00 14,2 8,6 4 2 E 1015,1 20 -
15.11.2018 06:00:00 14,1 8,5 5 3 SSW 1014,9 20 0,0
15.11.2018 05:00:00 14,1 7,6 4 2 SW 1015,0 20 0,0
15.11.2018 04:00:00 14,0 7,7 4 2 W 1015,2 20 -
15.11.2018 03:00:00 13,6 8,0 8 4 NW 1015,3 20 0,0
15.11.2018 02:00:00 13,8 7,8 2 1 SSW 1015,5 20 0,0
15.11.2018 01:00:00 13,2 8,7 4 2 WNW 1016,1 20 -
15.11.2018 00:00:00 13,1 8,8 4 2 E 1016,4 20 0,0
14.11.2018 23:00:00 12,1 9,8 5 3 NW 1016,9 17 0,0
14.11.2018 22:00:00 12,7 10,8 5 3 NW 1017,2 10 -
14.11.2018 21:00:00 13,2 11,3 5 3 WNW 1017,5 12 0,0
14.11.2018 20:00:00 13,4 11,1 2 1 NNW 1017,9 14 0,0
14.11.2018 19:00:00 13,7 10,9 8 4 ENE 1017,9 20 -
14.11.2018 18:00:00 15,2 11,4 8 4 E 1017,4 14 0,0
14.11.2018 17:00:00 17,0 11,5 8 4 E 1017,2 18 0,0
14.11.2018 16:00:00 17,9 10,3 4 2 E 1017,1 20 -
14.11.2018 15:00:00 18,0 9,1 4 2 ENE 1017,5 20 0,0
14.11.2018 14:00:00 16,6 9,5 2 1 N 1018,3 20 0,0
14.11.2018 13:00:00 15,5 8,5 4 2 W 1019,0 16 -
14.11.2018 12:00:00 13,8 10,6 2 1 SSW 1020,0 19 0,0

tt = Température de l'air
td = dewpoint
ff = Vitesse du vent
dd = Direction du vent
ppp = reduced air pressure
vv = visibility
rr = Quantités de précipitations

stations d'obs. à proximité